This is the latest recevied weather packets stored in our database for station/object KR4KUV. If no packets are shown the sender has not sent any weather packets the latest 10 day(s).
| Time | Temp. | Humidity | Pressure | Rain* | Wind** | Luminosity | Snow |
|---|---|---|---|---|---|---|---|
| 1788012405 | 21.11° C | 99% | 1024.2 hPa | 0 mm | - | 93 W/m² | - |
| 1788012104 | 21.67° C | 99% | 1024 hPa | 0 mm | - | 261 W/m² | - |
| 1788011799 | 21.11° C | 99% | 1024 hPa | 0 mm | - | 91 W/m² | - |
| 1788011498 | 21.11° C | 99% | 1023.9 hPa | 0 mm | - | 79 W/m² | - |
| 1788011193 | 21.11° C | 99% | 1023.9 hPa | 0 mm | - | 77 W/m² | - |
| 1788010887 | 21.11° C | 99% | 1024.3 hPa | 0 mm | - | 81 W/m² | - |
| 1788010587 | 20.56° C | 99% | 1023.8 hPa | 0 mm | - | 91 W/m² | - |
| 1788010280 | 20.56° C | 99% | 1024 hPa | 0 mm | - | 74 W/m² | - |
| 1788009975 | 20.56° C | 99% | 1024.2 hPa | 0 mm | - | 111 W/m² | - |
| 1788009674 | 20.56° C | 99% | 1023.8 hPa | 0 mm | - | 94 W/m² | - |
| 1788009374 | 20.56° C | 99% | 1023.8 hPa | 0 mm | - | 69 W/m² | - |
| 1788009073 | 20.56° C | 99% | 1023.9 hPa | 0 mm | - | 74 W/m² | - |
| 1788008769 | 20° C | 99% | 1023.8 hPa | 0 mm | - | 80 W/m² | - |
| 1788008469 | 20° C | 99% | 1023.7 hPa | 0 mm | - | 81 W/m² | - |
| 1788008166 | 20° C | 99% | 1023.8 hPa | 0 mm | - | 70 W/m² | - |
| 1788007864 | 19.44° C | 99% | 1023.8 hPa | 0 mm | - | 65 W/m² | - |
| 1788007563 | 19.44° C | 99% | 1023.7 hPa | 0 mm | - | 64 W/m² | - |
| 1788007258 | 19.44° C | 99% | 1023.7 hPa | 0 mm | - | 65 W/m² | - |
| 1788006957 | 19.44° C | 99% | 1023.8 hPa | 0 mm | - | 57 W/m² | - |
| 1788006651 | 19.44° C | 99% | 1023.7 hPa | 0 mm | - | 54 W/m² | - |
| 1788006346 | 18.89° C | 99% | 1023.6 hPa | 0 mm | - | 49 W/m² | - |
| 1788006044 | 18.89° C | 99% | 1023.6 hPa | 0 mm | - | 41 W/m² | - |
| 1788005739 | 18.89° C | 99% | 1023.5 hPa | 0 mm | - | 33 W/m² | - |
| 1788005434 | 18.89° C | 99% | 1023.4 hPa | 0 mm | - | 31 W/m² | - |
| 1788005132 | 18.33° C | 99% | 1023.2 hPa | 0 mm | - | 31 W/m² | - |
* Rain latest hour (hover to see other rain measurements)
** Current wind speed in m/s (hover to see current wind gust speed)